JAN13 YSSY-YPWR

Flight info

Callsign JAN13
Flight time 1h 5m
Altitude 36000
Route KADOM A576 PKS J141 LEC
Aircraft A321/M-SDE3FGHIRWY/LB1

Departure

Time 2026-04-30 03:25
Airport Sydney Kingsford Smith International Airport (YSSY)

Arrival

Time 2026-04-30 04:30
Airport Woomera Airfield (YPWR)
Time Latitude Longitude Altitude Speed Heading
2026-04-30 03:06 -33.93598 151.17991 30 ft 0 kts 280°
2026-04-30 03:12 -33.93599 151.18004 30 ft 3 kts 274°
2026-04-30 03:12 -33.93597 151.18030 30 ft 3 kts 245°
2026-04-30 03:13 -33.93585 151.18050 30 ft 3 kts 201°
2026-04-30 03:13 -33.93572 151.18054 30 ft 1 kts 182°
2026-04-30 03:13 -33.93570 151.18054 30 ft 0 kts 182°
2026-04-30 03:16 -33.93571 151.18054 30 ft 1 kts 182°
2026-04-30 03:16 -33.93607 151.18052 30 ft 10 kts 182°
2026-04-30 03:16 -33.93675 151.18053 30 ft 10 kts 173°
2026-04-30 03:17 -33.93750 151.18061 30 ft 11 kts 193°
2026-04-30 03:17 -33.93791 151.17981 30 ft 12 kts 253°
2026-04-30 03:17 -33.93816 151.17875 30 ft 14 kts 255°
2026-04-30 03:17 -33.93862 151.17776 30 ft 13 kts 199°
2026-04-30 03:18 -33.93926 151.17791 29 ft 10 kts 171°
2026-04-30 03:18 -33.94011 151.17808 29 ft 16 kts 170°
2026-04-30 03:18 -33.94139 151.17841 29 ft 22 kts 168°
2026-04-30 03:18 -33.94301 151.17882 30 ft 24 kts 168°
2026-04-30 03:19 -33.94456 151.17897 30 ft 22 kts 204°
2026-04-30 03:19 -33.94606 151.17902 30 ft 22 kts 169°
2026-04-30 03:19 -33.94762 151.17940 30 ft 23 kts 167°
2026-04-30 03:19 -33.94906 151.17982 30 ft 19 kts 166°
2026-04-30 03:20 -33.95040 151.18016 30 ft 20 kts 168°
2026-04-30 03:20 -33.95165 151.18032 30 ft 17 kts 203°
2026-04-30 03:20 -33.95209 151.17902 30 ft 18 kts 259°
2026-04-30 03:20 -33.95237 151.17747 29 ft 20 kts 258°
2026-04-30 03:21 -33.95295 151.17601 29 ft 20 kts 211°
2026-04-30 03:21 -33.95431 151.17598 30 ft 20 kts 167°
2026-04-30 03:21 -33.95525 151.17627 30 ft 1 kts 166°
2026-04-30 03:21 -33.95527 151.17627 30 ft 1 kts 166°
2026-04-30 03:22 -33.95541 151.17632 30 ft 5 kts 166°
2026-04-30 03:22 -33.95618 151.17651 30 ft 18 kts 168°
2026-04-30 03:22 -33.95749 151.17685 30 ft 19 kts 168°
2026-04-30 03:22 -33.95865 151.17737 30 ft 17 kts 135°
2026-04-30 03:23 -33.95887 151.17790 29 ft 0 kts 107°
2026-04-30 03:23 -33.95888 151.17794 29 ft 2 kts 104°
2026-04-30 03:24 -33.95890 151.17820 29 ft 8 kts 91°
2026-04-30 03:24 -33.95825 151.17909 28 ft 18 kts 352°
2026-04-30 03:24 -33.95572 151.17846 29 ft 70 kts 348°
2026-04-30 03:24 -33.94858 151.17658 30 ft 137 kts 348°
2026-04-30 03:25 -33.93768 151.17378 216 ft 170 kts 350°
2026-04-30 03:25 -33.93013 151.17174 761 ft 163 kts 349°
2026-04-30 03:25 -33.91934 151.16765 1499 ft 164 kts 337°
2026-04-30 03:25 -33.90932 151.16039 2105 ft 178 kts 324°
2026-04-30 03:26 -33.90019 151.14880 2513 ft 204 kts 308°
2026-04-30 03:26 -33.89311 151.13282 2902 ft 230 kts 298°
2026-04-30 03:26 -33.88584 151.11475 3373 ft 255 kts 298°
2026-04-30 03:26 -33.87779 151.09488 4268 ft 265 kts 298°
2026-04-30 03:27 -33.86973 151.07496 5311 ft 272 kts 297°
2026-04-30 03:27 -33.86104 151.05356 5943 ft 298 kts 297°
2026-04-30 03:27 -33.85155 151.03025 6488 ft 322 kts 298°
2026-04-30 03:27 -33.84232 151.00507 7087 ft 334 kts 291°
2026-04-30 03:28 -33.83563 150.97806 7775 ft 341 kts 285°
2026-04-30 03:28 -33.83048 150.95005 8476 ft 346 kts 282°
2026-04-30 03:28 -33.82596 150.92146 9220 ft 350 kts 281°
2026-04-30 03:28 -33.82146 150.89250 9946 ft 354 kts 281°
2026-04-30 03:29 -33.81671 150.86327 10626 ft 358 kts 282°
2026-04-30 03:29 -33.81163 150.83388 11328 ft 360 kts 283°
2026-04-30 03:29 -33.80629 150.80443 12057 ft 361 kts 283°
2026-04-30 03:29 -33.80077 150.77490 12775 ft 363 kts 284°
2026-04-30 03:30 -33.79515 150.74525 13477 ft 366 kts 284°
2026-04-30 03:30 -33.78948 150.71527 14126 ft 369 kts 284°
2026-04-30 03:30 -33.78379 150.68504 14734 ft 372 kts 283°
2026-04-30 03:30 -33.77804 150.65451 15309 ft 376 kts 283°
2026-04-30 03:31 -33.77223 150.62376 15901 ft 379 kts 284°
2026-04-30 03:31 -33.76636 150.59268 16468 ft 383 kts 283°
2026-04-30 03:31 -33.76044 150.56125 17046 ft 387 kts 283°
2026-04-30 03:31 -33.75449 150.52952 17627 ft 391 kts 283°
2026-04-30 03:32 -33.74850 150.49748 18201 ft 395 kts 282°
2026-04-30 03:32 -33.74248 150.46556 18740 ft 399 kts 282°
2026-04-30 03:32 -33.73619 150.43242 19203 ft 403 kts 283°
2026-04-30 03:32 -33.72992 150.39954 19732 ft 406 kts 283°
2026-04-30 03:33 -33.72365 150.36681 20258 ft 409 kts 283°
2026-04-30 03:33 -33.71726 150.33343 20787 ft 411 kts 283°
2026-04-30 03:33 -33.71068 150.29988 21292 ft 414 kts 285°
2026-04-30 03:33 -33.70197 150.26672 21773 ft 418 kts 288°
2026-04-30 03:34 -33.69296 150.23345 22277 ft 420 kts 288°
2026-04-30 03:34 -33.68386 150.20002 22756 ft 423 kts 288°
2026-04-30 03:34 -33.67471 150.16646 23210 ft 425 kts 288°
2026-04-30 03:34 -33.66546 150.13259 23671 ft 428 kts 288°
2026-04-30 03:35 -33.65612 150.09855 24091 ft 431 kts 287°
2026-04-30 03:35 -33.64673 150.06430 24450 ft 433 kts 287°
2026-04-30 03:35 -33.63732 150.02984 24831 ft 436 kts 287°
2026-04-30 03:35 -33.62787 149.99521 25218 ft 438 kts 287°
2026-04-30 03:36 -33.61838 149.96044 25599 ft 440 kts 287°
2026-04-30 03:36 -33.60883 149.92551 25969 ft 442 kts 287°
2026-04-30 03:36 -33.59921 149.89043 26328 ft 444 kts 287°
2026-04-30 03:36 -33.58954 149.85518 26684 ft 446 kts 287°
2026-04-30 03:37 -33.57976 149.81984 27044 ft 448 kts 287°
2026-04-30 03:37 -33.56990 149.78430 27380 ft 450 kts 287°
2026-04-30 03:37 -33.56000 149.74860 27724 ft 452 kts 287°
2026-04-30 03:37 -33.55010 149.71273 28056 ft 454 kts 287°
2026-04-30 03:38 -33.54014 149.67670 28390 ft 456 kts 287°
2026-04-30 03:38 -33.53013 149.64052 28715 ft 458 kts 287°
2026-04-30 03:38 -33.52006 149.60419 29053 ft 460 kts 287°
2026-04-30 03:38 -33.50988 149.56771 29346 ft 463 kts 287°
2026-04-30 03:39 -33.49965 149.53103 29669 ft 465 kts 287°
2026-04-30 03:39 -33.48940 149.49416 29986 ft 468 kts 287°
2026-04-30 03:39 -33.47908 149.45714 30290 ft 470 kts 287°
2026-04-30 03:39 -33.46872 149.41999 30620 ft 470 kts 287°
2026-04-30 03:40 -33.45839 149.38297 30967 ft 469 kts 287°
2026-04-30 03:40 -33.44806 149.34591 31304 ft 469 kts 287°
2026-04-30 03:40 -33.43772 149.30890 31645 ft 468 kts 287°
2026-04-30 03:40 -33.42738 149.27195 31995 ft 468 kts 287°
2026-04-30 03:41 -33.41713 149.23556 32322 ft 467 kts 287°
2026-04-30 03:41 -33.40672 149.19879 32692 ft 466 kts 287°
2026-04-30 03:41 -33.39635 149.16208 33018 ft 465 kts 288°
2026-04-30 03:41 -33.38595 149.12544 33360 ft 465 kts 288°
2026-04-30 03:42 -33.37560 149.08886 33707 ft 464 kts 287°
2026-04-30 03:42 -33.36529 149.05230 34014 ft 464 kts 287°
2026-04-30 03:42 -33.35499 149.01580 34351 ft 462 kts 287°
2026-04-30 03:42 -33.34470 148.97945 34687 ft 460 kts 288°
2026-04-30 03:43 -33.33442 148.94333 35041 ft 457 kts 287°
2026-04-30 03:43 -33.32422 148.90751 35423 ft 453 kts 288°
2026-04-30 03:43 -33.31675 148.88138 35661 ft 452 kts 288°
2026-04-30 03:43 -33.30662 148.84592 35977 ft 450 kts 288°
2026-04-30 03:44 -33.29651 148.81055 36279 ft 449 kts 288°
2026-04-30 03:44 -33.28642 148.77525 36364 ft 448 kts 288°
2026-04-30 03:44 -33.26638 148.70525 36374 ft 440 kts 288°
2026-04-30 03:45 -33.24665 148.63644 36369 ft 437 kts 288°
2026-04-30 03:45 -33.22694 148.56783 36366 ft 436 kts 288°
2026-04-30 03:46 -33.20732 148.49975 36366 ft 436 kts 288°
2026-04-30 03:46 -33.18755 148.43122 36369 ft 436 kts 288°
2026-04-30 03:47 -33.16773 148.36282 36379 ft 436 kts 288°
2026-04-30 03:47 -33.14789 148.29437 36382 ft 436 kts 288°
2026-04-30 03:48 -31.38024 141.26303 35903 ft 436 kts 287°
2026-04-30 03:48 -31.37305 141.22978 36273 ft 414 kts 276°
2026-04-30 03:48 -31.36945 141.19634 36271 ft 414 kts 275°
2026-04-30 03:49 -31.36318 141.12934 36272 ft 414 kts 275°
2026-04-30 03:49 -31.35717 141.06234 36272 ft 414 kts 275°
2026-04-30 03:50 -31.34878 140.99578 36268 ft 415 kts 284°
2026-04-30 03:50 -31.33071 140.93151 36273 ft 416 kts 286°
2026-04-30 03:51 -31.31248 140.86717 36275 ft 417 kts 286°
2026-04-30 03:51 -31.29427 140.80283 36284 ft 417 kts 286°
2026-04-30 03:52 -31.27600 140.73842 36290 ft 417 kts 287°
2026-04-30 03:52 -31.25781 140.67446 36292 ft 417 kts 287°
2026-04-30 03:53 -31.23948 140.61009 36294 ft 417 kts 287°
2026-04-30 03:53 -31.22114 140.54576 36294 ft 417 kts 287°
2026-04-30 03:54 -31.20277 140.48150 36294 ft 417 kts 287°
2026-04-30 03:54 -31.18432 140.41731 36292 ft 417 kts 287°
2026-04-30 03:55 -31.16586 140.35323 36295 ft 417 kts 287°
2026-04-30 03:55 -31.14744 140.28911 36299 ft 416 kts 287°
2026-04-30 03:56 -31.12901 140.22502 36300 ft 416 kts 287°
2026-04-30 03:56 -31.11053 140.16098 36296 ft 416 kts 287°
2026-04-30 03:57 -31.09206 140.09742 36302 ft 416 kts 287°
2026-04-30 03:57 -31.07344 140.03347 36304 ft 416 kts 287°
2026-04-30 03:58 -31.05479 139.96956 36298 ft 416 kts 287°
2026-04-30 03:58 -31.03610 139.90575 36303 ft 416 kts 287°
2026-04-30 03:59 -31.01759 139.84183 36309 ft 416 kts 287°
2026-04-30 03:59 -30.99891 139.77798 36308 ft 416 kts 287°
2026-04-30 04:00 -30.98015 139.71420 36301 ft 416 kts 288°
2026-04-30 04:00 -30.96136 139.65046 36306 ft 416 kts 288°
2026-04-30 04:01 -30.94252 139.58678 36303 ft 416 kts 288°
2026-04-30 04:01 -30.92375 139.52308 36303 ft 416 kts 288°
2026-04-30 04:02 -30.90503 139.45938 36301 ft 416 kts 288°
2026-04-30 04:02 -30.88617 139.39584 36304 ft 416 kts 288°
2026-04-30 04:03 -30.86724 139.33226 36299 ft 416 kts 288°
2026-04-30 04:03 -30.84830 139.26870 36304 ft 416 kts 288°
2026-04-30 04:04 -30.82935 139.20517 36295 ft 416 kts 288°
2026-04-30 04:04 -30.81035 139.14170 36299 ft 416 kts 288°
2026-04-30 04:05 -30.79132 139.07821 36292 ft 416 kts 288°
2026-04-30 04:05 -30.77224 139.01476 36295 ft 416 kts 288°
2026-04-30 04:06 -30.75320 138.95137 36287 ft 415 kts 289°
2026-04-30 04:06 -30.73415 138.88792 36289 ft 415 kts 288°
2026-04-30 04:07 -30.71499 138.82454 36286 ft 416 kts 289°
2026-04-30 04:08 -30.68618 138.72959 36279 ft 416 kts 289°
2026-04-30 04:08 -30.66694 138.66632 36281 ft 415 kts 289°
2026-04-30 04:09 -30.64769 138.60306 36276 ft 415 kts 289°
2026-04-30 04:09 -30.62844 138.53981 36271 ft 415 kts 289°
2026-04-30 04:09 -30.61899 138.50813 36090 ft 415 kts 286°
2026-04-30 04:10 -30.61329 138.47540 35830 ft 414 kts 276°
2026-04-30 04:10 -30.61327 138.44194 35564 ft 416 kts 265°
2026-04-30 04:10 -30.61894 138.40906 35085 ft 418 kts 254°
2026-04-30 04:10 -30.63052 138.37799 34571 ft 421 kts 243°
2026-04-30 04:11 -30.64528 138.34876 34050 ft 420 kts 243°
2026-04-30 04:11 -30.65991 138.31950 33530 ft 417 kts 243°
2026-04-30 04:11 -30.67434 138.29037 33021 ft 415 kts 243°
2026-04-30 04:11 -30.68861 138.26138 32521 ft 412 kts 243°
2026-04-30 04:12 -30.70276 138.23251 32014 ft 410 kts 243°
2026-04-30 04:12 -30.71667 138.20414 31503 ft 409 kts 243°
2026-04-30 04:12 -30.73071 138.17551 31013 ft 407 kts 242°
2026-04-30 04:12 -30.74482 138.14673 30516 ft 418 kts 242°
2026-04-30 04:13 -30.75966 138.11647 29945 ft 443 kts 242°
2026-04-30 04:13 -30.77530 138.08457 29385 ft 462 kts 242°
2026-04-30 04:13 -30.79135 138.05191 28833 ft 466 kts 242°
2026-04-30 04:13 -30.80749 138.01920 28292 ft 466 kts 241°
2026-04-30 04:14 -30.82358 137.98658 27752 ft 464 kts 242°
2026-04-30 04:14 -30.83955 137.95416 27219 ft 462 kts 242°
2026-04-30 04:14 -30.85545 137.92180 26698 ft 459 kts 242°
2026-04-30 04:14 -30.86612 137.90000 26345 ft 458 kts 242°
2026-04-30 04:15 -30.88181 137.86789 25800 ft 455 kts 242°
2026-04-30 04:15 -30.89720 137.83635 25256 ft 453 kts 242°
2026-04-30 04:15 -30.91272 137.80454 24703 ft 450 kts 242°
2026-04-30 04:15 -30.92800 137.77319 24447 ft 438 kts 242°
2026-04-30 04:16 -30.94278 137.74294 24326 ft 422 kts 242°
2026-04-30 04:16 -30.95706 137.71366 24165 ft 411 kts 242°
2026-04-30 04:16 -30.97105 137.68493 23830 ft 405 kts 242°
2026-04-30 04:16 -30.98487 137.65643 23370 ft 402 kts 242°
2026-04-30 04:17 -30.99877 137.62778 22886 ft 399 kts 242°
2026-04-30 04:17 -31.01222 137.60010 22452 ft 396 kts 242°
2026-04-30 04:17 -31.02575 137.57230 21975 ft 394 kts 242°
2026-04-30 04:17 -31.03916 137.54476 21305 ft 386 kts 243°
2026-04-30 04:18 -31.05230 137.51772 20275 ft 381 kts 243°
2026-04-30 04:18 -31.06519 137.49107 19293 ft 375 kts 243°
2026-04-30 04:18 -31.07793 137.46469 18307 ft 370 kts 242°
2026-04-30 04:18 -31.09038 137.43892 17527 ft 357 kts 243°
2026-04-30 04:19 -31.10221 137.41446 17070 ft 336 kts 242°
2026-04-30 04:19 -31.11343 137.39129 16610 ft 320 kts 242°
2026-04-30 04:19 -31.12409 137.36922 16166 ft 306 kts 242°
2026-04-30 04:19 -31.13454 137.34755 15738 ft 307 kts 244°
2026-04-30 04:20 -31.14498 137.32582 15315 ft 308 kts 242°
2026-04-30 04:20 -31.15550 137.30392 14872 ft 310 kts 243°
2026-04-30 04:20 -31.16607 137.28189 14418 ft 312 kts 244°
2026-04-30 04:20 -31.17669 137.25975 13966 ft 313 kts 244°
2026-04-30 04:21 -31.18738 137.23754 13490 ft 314 kts 243°
2026-04-30 04:21 -31.19809 137.21537 13044 ft 313 kts 243°
2026-04-30 04:21 -31.20877 137.19324 12635 ft 312 kts 243°
2026-04-30 04:21 -31.21939 137.17115 12208 ft 311 kts 244°
2026-04-30 04:22 -31.22998 137.14916 11795 ft 309 kts 244°
2026-04-30 04:22 -31.24040 137.12747 11399 ft 308 kts 243°
2026-04-30 04:22 -31.25087 137.10568 11064 ft 305 kts 243°
2026-04-30 04:22 -31.26122 137.08409 10525 ft 304 kts 243°
2026-04-30 04:23 -31.27154 137.06254 9953 ft 302 kts 243°
2026-04-30 04:23 -31.28174 137.04120 9377 ft 299 kts 244°
2026-04-30 04:23 -31.29192 137.01990 8896 ft 293 kts 243°
2026-04-30 04:23 -31.30160 136.99964 8469 ft 286 kts 243°
2026-04-30 04:24 -31.31115 136.97965 8062 ft 279 kts 244°
2026-04-30 04:24 -31.32049 136.96008 7652 ft 272 kts 241°
2026-04-30 04:24 -31.32987 136.94108 7251 ft 267 kts 240°
2026-04-30 04:24 -31.33936 136.92271 6852 ft 261 kts 238°
2026-04-30 04:25 -31.34860 136.90471 6482 ft 254 kts 241°
2026-04-30 04:25 -31.35539 136.88629 6184 ft 243 kts 261°
2026-04-30 04:25 -31.35458 136.86742 5950 ft 224 kts 292°
2026-04-30 04:25 -31.34755 136.85186 5803 ft 214 kts 304°
2026-04-30 04:26 -31.33996 136.83698 5435 ft 211 kts 298°
2026-04-30 04:26 -31.33349 136.82165 5162 ft 209 kts 302°
2026-04-30 04:26 -31.32440 136.80863 4948 ft 206 kts 317°
2026-04-30 04:26 -31.31269 136.79883 4487 ft 212 kts 332°
2026-04-30 04:27 -31.29822 136.79248 3519 ft 234 kts 347°
2026-04-30 04:27 -31.28180 136.79349 3015 ft 235 kts 13°
2026-04-30 04:27 -31.26680 136.79842 2821 ft 215 kts 10°
2026-04-30 04:27 -31.25247 136.80039 2492 ft 199 kts
2026-04-30 04:28 -31.23952 136.80143 2262 ft 175 kts
2026-04-30 04:28 -31.22802 136.80289 2039 ft 156 kts
2026-04-30 04:28 -31.21743 136.80411 1831 ft 151 kts
2026-04-30 04:28 -31.20718 136.80537 1679 ft 148 kts
2026-04-30 04:29 -31.19732 136.80639 1485 ft 142 kts
2026-04-30 04:29 -31.18761 136.80775 1271 ft 139 kts
2026-04-30 04:29 -31.17764 136.80895 1079 ft 145 kts
2026-04-30 04:29 -31.16762 136.80993 817 ft 146 kts
2026-04-30 04:30 -31.15785 136.81118 637 ft 142 kts
2026-04-30 04:30 -31.14859 136.81237 556 ft 119 kts 358°
2026-04-30 04:30 -31.14192 136.81305 546 ft 71 kts
2026-04-30 04:30 -31.13867 136.81345 548 ft 38 kts
2026-04-30 04:31 -31.13651 136.81370 544 ft 19 kts
2026-04-30 04:31 -31.13621 136.81369 544 ft 0 kts 355°
2026-04-30 04:31 -31.13581 136.81343 549 ft 12 kts 332°
2026-04-30 04:31 -31.13558 136.81369 545 ft 4 kts 128°
2026-04-30 04:32 -31.13600 136.81373 545 ft 10 kts 181°
2026-04-30 04:32 -31.13698 136.81364 544 ft 16 kts 186°
2026-04-30 04:32 -31.13816 136.81349 544 ft 18 kts 186°
2026-04-30 04:32 -31.13939 136.81333 546 ft 18 kts 186°
2026-04-30 04:33 -31.14069 136.81318 546 ft 20 kts 186°
2026-04-30 04:33 -31.14210 136.81301 547 ft 21 kts 186°
2026-04-30 04:33 -31.14355 136.81285 549 ft 21 kts 185°
2026-04-30 04:33 -31.14504 136.81267 549 ft 19 kts 186°
2026-04-30 04:34 -31.14607 136.81216 549 ft 17 kts 252°
2026-04-30 04:34 -31.14599 136.81076 549 ft 18 kts 277°
2026-04-30 04:34 -31.14590 136.80954 550 ft 12 kts 272°
2026-04-30 04:34 -31.14633 136.80876 556 ft 13 kts 200°
2026-04-30 04:35 -31.14707 136.80842 555 ft 11 kts 236°
2026-04-30 04:35 -31.14711 136.80779 550 ft 1 kts 328°
2026-04-30 04:35 -31.14705 136.80779 550 ft 0 kts 354°